Location: *
(47.8307°S, 178.3954°E)
Time: 23:01:10
(UTC+00:00)

Cosmos 1378 Rocket - Visible Passes

Search period start: 18 November 2025 00:00
Search period end: 28 November 2025 00:00
Orbit: 594 x 620 km, 82.5° (Epoch: 18 November)

Date Brightness Start Highest point End Pass type
(mag) Time Alt. Az. Time Alt. Az. Time Alt. Az.
18 Nov 6.7 14:32:29 10° SSE 14:34:41 13° ESE 14:36:52 10° E visible
19 Nov 6.3 14:45:15 10° SSE 14:48:35 20° ESE 14:51:52 10° ENE visible
20 Nov 5.5 14:58:26 10° S 15:02:24 31° ESE 15:06:17 10° NE visible
21 Nov 4.6 15:11:50 10° S 15:16:09 50° ESE 15:20:23 10° NNE visible
22 Nov 6.9 13:50:49 10° SE 13:51:24 10° ESE 13:51:58 10° ESE visible
22 Nov 3.7 15:25:22 10° S 15:29:49 82° E 15:34:10 10° N visible
23 Nov 6.4 14:02:36 10° SSE 14:05:20 16° ESE 14:08:02 10° ENE visible
24 Nov 5.9 14:15:34 10° SSE 14:19:11 24° ESE 14:22:45 10° NE visible
25 Nov 5.0 14:28:51 10° S 14:32:58 37° ESE 14:37:00 10° NE visible
26 Nov 4.1 14:42:17 10° S 14:46:40 61° ESE 14:50:57 10° NNE visible
27 Nov 6.4 13:20:11 10° SE 13:22:01 12° ESE 13:23:50 10° E visible
27 Nov 3.5 14:55:52 10° SSW 15:00:18 81° W 15:04:37 10° N visible
